User: anonymous
Location: Houston
(29.7630°N, 95.3630°W)
Time: 16:01:39
(UTC-05:00)
Language:

ISS - Orbit

View from above orbital plane
View from above orbital plane
View from above satellite
View from above satellite

Ground track
Ground track

The orbit data is extracted from the following two-line orbital elements,

1 25544U 98067A   14244.67281997  .00011937  00000-0  21560-3 0    61
2 25544 051.6437 080.4894 0003625 064.8389 338.0994 15.50158655903194
Epoch (UTC): 01 September 2014 16:08:51
Eccentricity: 0.0003625
inclination: 51.6437°
perigee height: 414 km
apogee height: 419 km
right ascension of ascending node: 80.4894°
argument of perigee: 64.8389°
revolutions per day: 15.50158655
mean anomaly at epoch: 338.0994°
orbit number at epoch: 90319

The dashed part of the orbit path shows where the satellite is in the earth's shadow,  

DLR